[[{"header":{"parameterUnit":"m.s-1","parameterCategory":1,"la1":30.2991,"la2":30.254,"lo1":-89.0895,"lo2":-89.0444,"dy":0.0017,"dx":0.0017,"nx":28,"ny":28,"refTime":"2023-09-28T03:00:00:Z","depth":0,"parameterNumber":2,"parameterNumberName":"U-component_of_WINDS"},"data":[0,0,0,0,0,0,0,0,0,0,0,0,0,0,0,0,0,0,0,0,0,0,0,0,0,0,0,0,0,0,0,0,0,0,0,0,0,0,0,0,0,0,0,0,0,0,0,0,0,0,0,0,0,0,0,0,0,0,-4.6579,-4.6579,0,-4.6632,-4.6633,-4.6634,-4.6453,-4.6447,-4.6442,-4.6437,-4.6495,-4.6501,-4.6508,0,0,0,0,0,0,0,0,0,0,0,0,0,-4.6322,-4.6327,-4.6579,-4.6579,-4.658,-4.6632,-4.6633,-4.6634,-4.6454,-4.6447,-4.644,-4.6434,-4.6493,-4.65,-4.6508,0,0,0,0,0,0,0,0,0,0,0,0,0,-4.6411,-4.6329,-4.6578,-4.6496,-4.6489,-4.6632,-4.6633,-4.6634,-4.6455,-4.6447,-4.6439,-4.6431,-4.649,-4.65,-4.651,-4.6735,0,0,-4.654,-4.6544,0,0,0,0,0,0,0,0,-4.6406,-4.642,-4.6508,-4.6502,-4.6495,-4.6527,-4.6564,-4.6668,-4.6457,-4.6468,-4.6437,-4.6427,-4.6513,-4.652,-4.6548,-4.6738,-4.674,-4.6541,-4.6547,-4.6551,-4.6554,0,0,0,0,0,0,0,-4.64,-4.6417,-4.66,-4.6509,-4.6501,-4.6457,-4.6461,-4.6583,-4.6536,-4.6467,-4.6454,-4.6462,-4.6507,-4.6539,-4.6548,-4.6741,-4.6541,-4.6549,-4.6556,-4.6559,-4.7118,-4.7126,0,0,0,0,0,0,-4.6404,-4.6413,-4.6598,-4.6601,-4.6429,-4.6469,-4.6473,-4.6525,-4.6534,-4.6527,-4.6469,-4.6454,-4.6526,-4.6537,-4.655,-4.6813,-4.6551,-4.656,-4.6566,-4.7109,-4.712,-4.7129,0,0,0,0,0,0,-4.6399,-4.6422,-4.6596,-4.6504,-4.6522,-4.6482,-4.6542,-4.6531,-4.6562,-4.6536,-4.6527,-4.651,-4.652,-4.6536,-4.669,-4.6813,-4.6565,-4.6574,-4.7098,-4.7112,-4.7124,-4.7344,0,0,0,0,0,0,-4.6393,-4.6422,-4.6506,-4.6507,-4.6528,-4.6735,-4.655,-4.6538,-4.6579,-4.656,-4.6572,-4.6566,-4.6515,-4.6676,-4.67,-4.6822,-4.6582,-4.7087,-4.7105,-4.712,-4.7325,-4.7363,-4.7395,0,0,0,0,0,-4.6384,-4.6567,-4.6512,-4.6535,-4.6633,-4.6743,-4.6755,-4.6691,-4.659,-4.6675,-4.6658,-4.6566,-4.6796,-4.6693,-4.6719,-4.6846,-4.7079,-4.71,-4.7119,-4.731,-4.7356,-4.7394,0,0,0,0,0,0,-4.6583,-4.6565,-4.6504,-4.6692,-4.672,-4.6712,-4.6817,-4.6742,-4.68,-4.6779,-4.6699,-4.6703,-4.6872,-4.6874,-4.676,-4.7064,-4.692,-4.6946,-4.7057,-4.71,-4.7134,-4.713,-4.659,0,0,0,0,0,-4.6648,-4.6738,-4.6718,-4.6886,-4.6903,-4.6859,-4.6904,-4.6853,-4.6879,-4.689,-4.6884,-4.6914,-4.6993,-4.7047,-4.7118,-4.7325,-4.7325,-4.7425,-4.746,-4.7489,-4.7512,-4.7622,-4.7666,-4.7195,-4.7194,-4.7194,0,0,-4.6785,-4.6786,-4.6848,-4.6926,-4.6942,-4.7037,-4.687,-4.6978,-4.7048,-4.6907,-4.7051,-4.7049,-4.7077,-4.7259,-4.7338,-4.7266,-4.7642,-4.7514,-4.7537,-4.7545,-4.7647,-4.7691,-4.7731,-4.7208,-4.7206,-4.7204,0,0,-4.7082,-4.7093,-4.7233,-4.7252,-4.7278,-4.7247,-4.7281,-4.7284,-4.7277,-4.7421,-4.7317,-4.7399,-4.7537,-4.7561,-4.7591,-4.7899,-4.7815,-4.7924,-4.8106,-4.8214,-4.8251,-4.8284,-4.8393,-4.8433,-4.7947,-4.7948,-4.7948,0,-4.7248,-4.7387,-4.7315,-4.743,-4.7468,-4.7343,-4.7486,-4.7508,-4.7557,-4.7586,-4.7503,-4.7673,-4.7683,-4.7868,-4.7943,-4.7972,-4.8009,-4.7922,-4.8251,-4.8283,-4.8313,-4.8416,-4.8457,-4.7961,-4.796,-4.7958,-4.7957,0,-4.759,-4.7689,-4.7799,-4.7848,-4.7898,-4.8026,-4.7974,-4.8034,-4.7979,-4.7957,-4.8105,-4.8113,-4.8183,-4.8224,-4.8171,-4.8403,-4.8356,-4.8265,-4.8118,-4.8372,-4.8467,-4.8506,-4.798,-4.7975,-4.7971,-4.7968,0,0,-4.8014,-4.8021,-4.8063,-4.8083,-4.8102,-4.8177,-4.83,-4.8368,-4.842,-4.8458,-4.856,-4.8679,-4.8594,-4.8628,-4.8578,-4.8673,-4.8915,-4.8568,-4.8568,-4.8632,-4.917,-4.9239,-4.9286,-4.886,-4.8868,-4.8873,-4.9168,0,-4.8305,-4.8514,-4.8453,-4.8664,-4.8753,-4.8637,-4.8744,-4.8768,-4.8751,-4.8826,-4.8807,-4.8893,-4.8774,-4.8794,-4.8883,-4.8867,-4.9022,-4.8845,-4.8954,-4.8959,-4.895,-4.9336,-4.9409,-4.9686,-4.9205,-4.9211,-4.9215,0,-4.8673,-4.8724,-4.8944,-4.8948,-4.8983,-4.908,-4.9137,-4.921,-4.9235,-4.9216,-4.9256,-4.9185,-4.9307,-4.9161,-4.9327,-4.9208,-4.9249,-4.9249,-4.9258,-4.9265,-4.9102,-4.9353,-4.9773,-4.9815,-4.9274,-4.9269,-4.9265,0,-4.8959,-4.9083,-4.923,-4.9251,-4.926,-4.9331,-4.9338,-4.9355,-4.94,-4.945,-4.9479,-4.9544,-4.9579,-4.9632,-4.9581,-4.9479,-4.9756,-4.9605,-4.9744,-4.9746,-4.9807,-4.9804,-5.0239,-4.9836,-4.9835,-4.9834,-4.9833,0,-4.929,-4.9429,-4.9358,-4.9449,-4.9601,-4.953,-4.9683,-4.9676,-4.9693,-4.9781,-4.9685,-4.9769,-4.9698,-4.9777,-4.9739,-4.9882,-4.9899,-4.9888,-4.9876,-4.9896,-4.9898,-4.9922,-4.9901,-4.9845,-4.9843,-4.9841,-4.9839,0,-4.9635,-4.9593,-4.9746,-4.9741,-4.9744,-4.9856,-4.9852,-4.9936,-4.9912,-5.0025,-5.0047,-5.0011,-5.0098,-5.0053,-5.0145,-5.0119,-5.0305,-5.0267,-5.0296,-5.0286,-5.0427,-5.0414,-5.0892,-5.0951,-5.0511,-5.0515,-5.0519,0,-4.9849,-4.9953,-4.9959,-5.0011,-5.0024,-5.0109,-5.0153,-5.0088,-5.0139,-5.0176,-5.0256,-5.0335,-5.0394,-5.054,-5.0522,-5.0592,-5.0555,-5.0718,-5.0565,-5.0582,-5.0557,-5.0551,-5.0561,-5.0748,-5.0754,-5.0758,-5.0761,0,-5.0233,-5.0207,-5.0275,-5.0337,-5.0393,-5.0438,-5.0476,-5.0524,-5.0459,-5.0522,-5.0609,-5.0656,-5.0748,-5.0829,-5.0889,-5.0896,-5.082,-5.081,-5.0845,-5.0866,-5.0879,-5.0873,-5.0379,-5.0799,-5.0795,-5.0792,-5.079,-5.0789,-5.0518,-5.0604,-5.0623,-5.0702,-5.0723,-5.076,-5.0839,-5.0825,-5.0896,-5.0966,-5.0923,-5.1027,-5.105,-5.1122,-5.1141,-5.1222,-5.1157,-5.1209,-5.1222,-5.1235,-5.1254,-5.0867,-5.1232,-5.1231,-5.123,-5.1229,-5.1228,0,-5.0896,-5.0902,-5.0975,-5.103,-5.1093,-5.1014,-5.1051,-5.1109,-5.1201,-5.1228,-5.1289,-5.139,-5.1468,-5.1456,-5.1527,-5.1594,-5.156,-5.1614,-5.1608,-5.1612,-5.1308,-5.127,-5.164,-5.164,-5.164,-5.164,-5.164,-5.164,-5.11,-5.1242,-5.1219,-5.1371,-5.1376,-5.1475,-5.1504,-5.1538,-5.1559,-5.1676,-5.174,-5.1731,-5.1744,-5.1814,-5.1882,-5.1877,-5.1907,-5.1975,-5.1957,-5.1674,-5.1633,-5.1594,-5.1557,-5.1982,-5.1983,-5.2253,-5.2256,-5.2258]},{"header":{"parameterUnit":"m.s-1","parameterCategory":1,"la1":30.2991,"la2":30.254,"lo1":-89.0895,"lo2":-89.0444,"dy":0.0017,"dx":0.0017,"nx":28,"ny":28,"refTime":"2023-09-28T03:00:00:Z","depth":0,"parameterNumber":3,"parameterNumberName":"V-component_of_WINDS"},"data":[0,0,0,0,0,0,0,0,0,0,0,0,0,0,0,0,0,0,0,0,0,0,0,0,0,0,0,0,0,0,0,0,0,0,0,0,0,0,0,0,0,0,0,0,0,0,0,0,0,0,0,0,0,0,0,0,0,0,-1.3645,-1.3644,0,-1.3607,-1.3606,-1.3606,-1.3593,-1.3594,-1.3594,-1.3594,-1.3553,-1.3551,-1.355,0,0,0,0,0,0,0,0,0,0,0,0,0,-1.3702,-1.3701,-1.3645,-1.3644,-1.3644,-1.3607,-1.3606,-1.3606,-1.3593,-1.3594,-1.3594,-1.3594,-1.3553,-1.3552,-1.355,0,0,0,0,0,0,0,0,0,0,0,0,0,-1.3672,-1.3701,-1.3645,-1.3633,-1.3632,-1.3607,-1.3606,-1.3606,-1.3593,-1.3594,-1.3594,-1.3594,-1.3554,-1.3552,-1.355,-1.3533,0,0,-1.3544,-1.3543,0,0,0,0,0,0,0,0,-1.3674,-1.367,-1.3635,-1.3634,-1.3632,-1.3605,-1.3611,-1.3581,-1.3593,-1.3608,-1.3594,-1.3594,-1.357,-1.3567,-1.3559,-1.3531,-1.3529,-1.3544,-1.3543,-1.3542,-1.3541,0,0,0,0,0,0,0,-1.3676,-1.3671,-1.363,-1.3635,-1.3633,-1.3629,-1.3625,-1.3606,-1.3588,-1.3607,-1.3606,-1.3602,-1.3569,-1.3561,-1.3558,-1.3529,-1.3544,-1.3542,-1.3541,-1.354,-1.3482,-1.3482,0,0,0,0,0,0,-1.368,-1.3673,-1.3631,-1.3629,-1.3654,-1.3627,-1.3623,-1.3614,-1.3588,-1.3584,-1.3601,-1.3601,-1.3564,-1.356,-1.3556,-1.3533,-1.3542,-1.354,-1.3539,-1.3483,-1.3482,-1.3482,0,0,0,0,0,0,-1.3682,-1.3677,-1.3632,-1.3651,-1.3645,-1.3626,-1.3616,-1.3613,-1.3604,-1.3584,-1.358,-1.3596,-1.3564,-1.3559,-1.3539,-1.3532,-1.3539,-1.3538,-1.3483,-1.3483,-1.3482,-1.3488,0,0,0,0,0,0,-1.3683,-1.3677,-1.3672,-1.3651,-1.3644,-1.3617,-1.3615,-1.3612,-1.3602,-1.3601,-1.3578,-1.3575,-1.3564,-1.3541,-1.3537,-1.3529,-1.3536,-1.3484,-1.3483,-1.3482,-1.3488,-1.3488,-1.3487,0,0,0,0,0,-1.3686,-1.3675,-1.3672,-1.3667,-1.3637,-1.3616,-1.3612,-1.36,-1.3601,-1.3595,-1.3581,-1.3576,-1.3533,-1.3539,-1.3534,-1.3526,-1.3484,-1.3483,-1.3482,-1.3489,-1.3488,-1.3487,0,0,0,0,0,0,-1.3696,-1.3672,-1.3668,-1.3651,-1.3636,-1.3614,-1.3606,-1.36,-1.3584,-1.3584,-1.3569,-1.3564,-1.3544,-1.3533,-1.354,-1.3507,-1.3508,-1.3506,-1.3515,-1.3514,-1.3513,-1.3516,-1.3535,0,0,0,0,0,-1.3696,-1.3683,-1.3662,-1.3649,-1.3641,-1.3625,-1.3616,-1.3607,-1.3591,-1.3584,-1.3569,-1.3552,-1.3535,-1.3524,-1.3507,-1.3487,-1.348,-1.3478,-1.3478,-1.3477,-1.3475,-1.3461,-1.3459,-1.3479,-1.3479,-1.3479,0,0,-1.3696,-1.3682,-1.3674,-1.365,-1.3638,-1.3622,-1.362,-1.3604,-1.3592,-1.3582,-1.3561,-1.3549,-1.3529,-1.3508,-1.3498,-1.3499,-1.3468,-1.3476,-1.3476,-1.3474,-1.346,-1.3458,-1.3457,-1.3478,-1.3478,-1.3479,0,0,-1.3689,-1.3678,-1.3664,-1.3651,-1.3632,-1.3621,-1.3617,-1.3596,-1.3588,-1.3568,-1.3559,-1.3543,-1.3515,-1.35,-1.3489,-1.3473,-1.3467,-1.3468,-1.3465,-1.3451,-1.345,-1.3448,-1.3441,-1.3439,-1.3467,-1.3467,-1.3467,0,-1.3692,-1.367,-1.3658,-1.3642,-1.3631,-1.3621,-1.3606,-1.3594,-1.357,-1.3561,-1.3562,-1.3524,-1.351,-1.3484,-1.348,-1.3472,-1.3466,-1.3471,-1.3451,-1.345,-1.3448,-1.3441,-1.3438,-1.3467,-1.3467,-1.3467,-1.3467,0,-1.3673,-1.3658,-1.3649,-1.3626,-1.3614,-1.3599,-1.3583,-1.3572,-1.3564,-1.3552,-1.353,-1.3512,-1.349,-1.3484,-1.3476,-1.3456,-1.3457,-1.3454,-1.3455,-1.3446,-1.3439,-1.3437,-1.3467,-1.3467,-1.3467,-1.3467,0,0,-1.3673,-1.3642,-1.3639,-1.3628,-1.3605,-1.3592,-1.3575,-1.3554,-1.3544,-1.3527,-1.3511,-1.3486,-1.3483,-1.347,-1.346,-1.3449,-1.3435,-1.3448,-1.3447,-1.3445,-1.3409,-1.341,-1.3408,-1.3431,-1.343,-1.343,-1.341,0,-1.3662,-1.3633,-1.362,-1.3596,-1.3581,-1.3569,-1.3554,-1.3538,-1.3525,-1.3509,-1.3495,-1.3477,-1.3475,-1.3467,-1.3455,-1.3439,-1.3428,-1.3441,-1.3414,-1.3413,-1.3419,-1.3404,-1.3406,-1.3389,-1.3408,-1.3407,-1.3407,0,-1.3646,-1.3629,-1.3603,-1.358,-1.3573,-1.356,-1.3538,-1.3524,-1.3503,-1.3495,-1.3479,-1.347,-1.345,-1.3452,-1.3423,-1.3432,-1.342,-1.3411,-1.3409,-1.3406,-1.3409,-1.3399,-1.3383,-1.338,-1.3403,-1.3403,-1.3403,0,-1.3646,-1.3617,-1.3597,-1.3588,-1.3561,-1.3551,-1.3539,-1.3519,-1.3507,-1.3487,-1.3479,-1.3457,-1.3445,-1.3428,-1.3412,-1.3415,-1.3383,-1.3385,-1.3374,-1.3374,-1.3367,-1.3368,-1.3348,-1.3361,-1.3362,-1.3362,-1.3362,0,-1.3635,-1.362,-1.3597,-1.3585,-1.3566,-1.3551,-1.3532,-1.3519,-1.3501,-1.3484,-1.3473,-1.3458,-1.3438,-1.3419,-1.3407,-1.3383,-1.3378,-1.3369,-1.3366,-1.337,-1.3371,-1.3361,-1.3362,-1.3361,-1.3361,-1.3361,-1.3361,0,-1.3633,-1.3617,-1.3595,-1.357,-1.3564,-1.3551,-1.3529,-1.3516,-1.3502,-1.3481,-1.3475,-1.3454,-1.3431,-1.3413,-1.3384,-1.3375,-1.335,-1.3347,-1.3357,-1.3355,-1.3344,-1.3345,-1.3317,-1.3312,-1.333,-1.333,-1.333,0,-1.3627,-1.3614,-1.3588,-1.3577,-1.3565,-1.3547,-1.3533,-1.3517,-1.3503,-1.3477,-1.3467,-1.3443,-1.3423,-1.3387,-1.3368,-1.3344,-1.334,-1.3331,-1.3336,-1.334,-1.3338,-1.3338,-1.3336,-1.3331,-1.3331,-1.3331,-1.3331,0,-1.3617,-1.3609,-1.3591,-1.3569,-1.3554,-1.3536,-1.3518,-1.3509,-1.3488,-1.3473,-1.345,-1.3435,-1.3404,-1.338,-1.3354,-1.3339,-1.3331,-1.3329,-1.3325,-1.3329,-1.3334,-1.3329,-1.3354,-1.333,-1.333,-1.333,-1.333,-1.333,-1.3611,-1.3599,-1.3578,-1.3558,-1.3542,-1.3524,-1.351,-1.3494,-1.3475,-1.3449,-1.344,-1.3415,-1.3392,-1.3356,-1.3342,-1.3321,-1.332,-1.3315,-1.3313,-1.3312,-1.3311,-1.3338,-1.3316,-1.3316,-1.3316,-1.3316,-1.3316,0,-1.36,-1.3585,-1.3566,-1.3541,-1.3524,-1.3518,-1.3496,-1.3482,-1.3461,-1.3441,-1.3421,-1.3393,-1.3369,-1.3347,-1.3321,-1.3308,-1.3304,-1.3302,-1.3302,-1.3299,-1.3314,-1.332,-1.3306,-1.3306,-1.3306,-1.3306,-1.3306,-1.3306,-1.3592,-1.357,-1.3559,-1.3528,-1.3513,-1.3489,-1.3477,-1.346,-1.3444,-1.3413,-1.3393,-1.3379,-1.3357,-1.3329,-1.3306,-1.33,-1.329,-1.3289,-1.3282,-1.3297,-1.3298,-1.3299,-1.3304,-1.3288,-1.3288,-1.3268,-1.3268,-1.3268]}]]